| time (UTC) | temp F | wind direction | speed MPH | gust MPH | rain 1hr in | rain 24hr in | rain mn in | humidity % | barometer mb |
| 20260507065514 | 43 | 267 | 0.0 | 0.0 | 0.00 | 0.00 | 0.00 | 96 | 1015.1 |
| 20260507065011 | 43 | 267 | 0.0 | 0.0 | 0.00 | 0.00 | 0.00 | 96 | 1015.1 |
| 20260507064509 | 43 | 267 | 0.0 | 0.0 | 0.00 | 0.00 | 0.00 | 96 | 1015.1 |
| 20260507064008 | 43 | 267 | 0.0 | 0.0 | 0.00 | 0.00 | 0.00 | 96 | 1014.9 |
| 20260507063504 | 43 | 267 | 0.0 | 0.0 | 0.00 | 0.00 | 0.00 | 96 | 1015.2 |
| 20260507063001 | 43 | 267 | 0.0 | 0.0 | 0.00 | 0.00 | 0.00 | 96 | 1015.3 |
| 20260507062458 | 43 | 267 | 1.0 | 1.0 | 0.00 | 0.00 | 0.00 | 96 | 1015.5 |
| 20260507061955 | 43 | 267 | 0.0 | 2.0 | 0.00 | 0.00 | 0.00 | 95 | 1015.3 |
| 20260507061453 | 43 | 267 | 2.0 | 2.0 | 0.00 | 0.00 | 0.00 | 95 | 1015.5 |
| 20260507060951 | 43 | 267 | 1.0 | 1.0 | 0.00 | 0.00 | 0.00 | 95 | 1015.4 |
| 20260507060448 | 43 | 267 | 1.0 | 2.0 | 0.00 | 0.00 | 0.00 | 95 | 1015.7 |
| 20260507055944 | 43 | 267 | 1.0 | 2.0 | 0.00 | 0.00 | 0.00 | 95 | 1015.8 |
| 20260507055440 | 43 | 266 | 0.0 | 2.0 | 0.00 | 0.00 | 0.00 | 95 | 1015.6 |
| 20260507054937 | 43 | 265 | 1.0 | 1.0 | 0.00 | 0.00 | 0.00 | 95 | 1015.8 |
| 20260507054433 | 43 | 265 | 1.0 | 2.0 | 0.00 | 0.00 | 0.00 | 95 | 1015.8 |
| 20260507053930 | 43 | 270 | 1.0 | 1.0 | 0.00 | 0.00 | 0.00 | 95 | 1015.8 |
| 20260507053428 | 43 | 270 | 1.0 | 2.0 | 0.00 | 0.00 | 0.00 | 95 | 1015.9 |
| 20260507052926 | 43 | 278 | 1.0 | 2.0 | 0.00 | 0.00 | 0.00 | 95 | 1015.9 |
| 20260507052423 | 43 | 278 | 1.0 | 1.0 | 0.00 | 0.00 | 0.00 | 96 | 1015.8 |
| 20260507051920 | 43 | 275 | 4.0 | 4.0 | 0.00 | 0.00 | 0.00 | 96 | 1015.9 |
| 20260507051418 | 43 | 288 | 0.0 | 0.0 | 0.00 | 0.00 | 0.00 | 96 | 1015.9 |
| 20260507050915 | 43 | 288 | 2.0 | 2.0 | 0.00 | 0.00 | 0.00 | 96 | 1015.9 |
| 20260507050411 | 43 | 289 | 1.0 | 1.0 | 0.00 | 0.00 | 0.00 | 96 | 1016.1 |
| 20260507045908 | 44 | 290 | 0.0 | 2.0 | 0.00 | 0.00 | 0.00 | 96 | 1016.0 |
| 20260507045404 | 44 | 289 | 1.0 | 2.0 | 0.00 | 0.00 | 0.00 | 96 | 1015.8 |
| 20260507044857 | 44 | 311 | 1.0 | 1.0 | 0.00 | 0.00 | 0.00 | 96 | 1015.7 |
| 20260507044353 | 44 | 292 | 1.0 | 3.0 | 0.00 | 0.00 | 0.00 | 96 | 1015.8 |
| 20260507043849 | 44 | 292 | 1.0 | 2.0 | 0.00 | 0.00 | 0.00 | 96 | 1015.7 |
| 20260507043346 | 44 | 305 | 0.0 | 0.0 | 0.00 | 0.00 | 0.00 | 96 | 1015.6 |
| 20260507042842 | 44 | 305 | 0.0 | 0.0 | 0.00 | 0.00 | 0.00 | 96 | 1015.4 |
| 20260507042338 | 44 | 305 | 0.0 | 0.0 | 0.00 | 0.00 | 0.00 | 96 | 1015.6 |
| 20260507041835 | 44 | 305 | 0.0 | 1.0 | 0.00 | 0.00 | 0.00 | 96 | 1015.4 |
| 20260507041331 | 45 | 305 | 0.0 | 0.0 | 0.00 | 0.00 | 0.00 | 96 | 1015.5 |
| 20260507040828 | 45 | 305 | 0.0 | 2.0 | 0.00 | 0.00 | 0.00 | 97 | 1015.9 |
| 20260507040324 | 45 | 277 | 0.0 | 0.0 | 0.00 | 0.27 | 0.27 | 97 | 1015.8 |
| 20260507035820 | 45 | 277 | 0.0 | 2.0 | 0.07 | 0.27 | 0.27 | 97 | 1015.6 |
| 20260507035316 | 45 | 277 | 0.0 | 0.0 | 0.07 | 0.27 | 0.27 | 97 | 1015.7 |
| 20260507034814 | 45 | 277 | 1.0 | 2.0 | 0.00 | 0.26 | 0.26 | 97 | 1015.8 |
| 20260507034310 | 45 | 277 | 0.0 | 2.0 | 0.00 | 0.26 | 0.26 | 97 | 1015.6 |
| 20260507033809 | 45 | 282 | 0.0 | 0.0 | 0.00 | 0.26 | 0.26 | 97 | 1015.7 |
| 20260507033306 | 45 | 282 | 2.0 | 3.0 | 0.00 | 0.26 | 0.26 | 97 | 1015.7 |
| 20260507032803 | 45 | 286 | 0.0 | 1.0 | 0.00 | 0.26 | 0.26 | 97 | 1015.5 |
| 20260507032259 | 45 | 286 | 0.0 | 2.0 | 0.00 | 0.26 | 0.26 | 97 | 1015.8 |
| 20260507031755 | 46 | 302 | 0.0 | 4.0 | 0.00 | 0.26 | 0.26 | 97 | 1016.0 |
| 20260507031252 | 46 | 279 | 0.0 | 0.0 | 0.00 | 0.26 | 0.26 | 97 | 1016.2 |
| 20260507030749 | 46 | 279 | 0.0 | 0.0 | 0.00 | 0.26 | 0.26 | 97 | 1015.5 |
| 20260507030246 | 46 | 279 | 0.0 | 0.0 | 0.00 | 0.26 | 0.26 | 97 | 1015.1 |
| 20260507025743 | 46 | 279 | 0.0 | 0.0 | 0.00 | 0.26 | 0.26 | 97 | 1015.2 |
| 20260507025240 | 46 | 279 | 0.0 | 0.0 | 0.00 | 0.26 | 0.26 | 97 | 1015.5 |
| 20260507024739 | 46 | 279 | 0.0 | 1.0 | 0.07 | 0.26 | 0.26 | 97 | 1015.8 |
| 20260507024236 | 47 | 279 | 1.0 | 2.0 | 0.07 | 0.26 | 0.26 | 97 | 1015.7 |
| 20260507023731 | 47 | 279 | 2.0 | 2.0 | 0.00 | 0.25 | 0.25 | 97 | 1015.6 |
| 20260507023228 | 47 | 305 | 0.0 | 0.0 | 0.00 | 0.25 | 0.25 | 97 | 1015.8 |
| 20260507022726 | 47 | 310 | 0.0 | 0.0 | 0.00 | 0.25 | 0.25 | 97 | 1015.4 |
| 20260507022221 | 47 | 307 | 0.0 | 0.0 | 0.00 | 0.25 | 0.25 | 97 | 1015.4 |
| 20260507021718 | 47 | 307 | 0.0 | 0.0 | 0.00 | 0.25 | 0.25 | 97 | 1015.4 |
| 20260507021213 | 47 | 307 | 0.0 | 0.0 | 0.00 | 0.25 | 0.25 | 97 | 1015.1 |
| 20260507020712 | 47 | 307 | 0.0 | 0.0 | 0.00 | 0.25 | 0.25 | 97 | 1015.3 |
| 20260507020207 | 48 | 291 | 0.0 | 0.0 | 0.00 | 0.25 | 0.25 | 97 | 1014.9 |
| 20260507015706 | 48 | 286 | 0.0 | 0.0 | 0.00 | 0.25 | 0.25 | 97 | 1014.6 |
| 20260507015203 | 48 | 286 | 0.0 | 0.0 | 0.00 | 0.25 | 0.25 | 97 | 1015.1 |
| 20260507014659 | 48 | 287 | 0.0 | 0.0 | 0.00 | 0.25 | 0.25 | 97 | 1015.1 |
| 20260507014155 | 47 | 287 | 1.0 | 2.0 | 0.00 | 0.25 | 0.25 | 96 | 1014.9 |
| 20260507013652 | 47 | 263 | 2.0 | 3.0 | 0.00 | 0.25 | 0.25 | 96 | 1014.9 |
| 20260507013149 | 47 | 297 | 0.0 | 3.0 | 0.00 | 0.25 | 0.25 | 96 | 1015.1 |
| 20260507012647 | 47 | 299 | 3.0 | 3.0 | 0.00 | 0.25 | 0.25 | 96 | 1015.2 |
| 20260507012142 | 48 | 264 | 2.0 | 3.0 | 0.00 | 0.25 | 0.25 | 96 | 1015.2 |
| 20260507011641 | 48 | 267 | 2.0 | 6.0 | 0.00 | 0.25 | 0.25 | 96 | 1015.3 |
| 20260507011136 | 48 | 297 | 1.0 | 2.0 | 0.00 | 0.25 | 0.25 | 96 | 1015.2 |
| 20260507010631 | 48 | 279 | 2.0 | 3.0 | 0.00 | 0.25 | 0.25 | 96 | 1014.9 |
| 20260507010127 | 48 | 255 | 1.0 | 2.0 | 0.00 | 0.25 | 0.25 | 96 | 1014.5 |
| 20260507005625 | 48 | 255 | 1.0 | 3.0 | 0.00 | 0.25 | 0.25 | 96 | 1015.1 |
| 20260507005121 | 48 | 271 | 0.0 | 0.0 | 0.00 | 0.25 | 0.25 | 96 | 1015.4 |
| 20260507004618 | 48 | 271 | 1.0 | 2.0 | 0.00 | 0.25 | 0.25 | 96 | 1014.9 |
| 20260507004116 | 48 | 286 | 0.0 | 3.0 | 0.00 | 0.25 | 0.25 | 96 | 1014.6 |
| 20260507003612 | 48 | 51 | 1.0 | 1.0 | 0.00 | 0.25 | 0.25 | 96 | 1014.7 |
| 20260507003106 | 48 | 288 | 0.0 | 0.0 | 0.00 | 0.25 | 0.25 | 95 | 1014.6 |
| 20260507002603 | 48 | 288 | 0.0 | 2.0 | 0.00 | 0.25 | 0.25 | 95 | 1014.6 |
| 20260507002059 | 48 | 299 | 0.0 | 4.0 | 0.00 | 0.25 | 0.25 | 95 | 1014.6 |
| 20260507001556 | 49 | 288 | 3.0 | 6.0 | 0.00 | 0.25 | 0.25 | 95 | 1014.8 |
| 20260507001054 | 49 | 257 | 2.0 | 2.0 | 0.00 | 0.25 | 0.25 | 95 | 1015.3 |
| 20260507000549 | 49 | 297 | 4.0 | 4.0 | 0.00 | 0.25 | 0.25 | 95 | 1015.4 |
| 20260507000045 | 49 | 299 | 1.0 | 2.0 | 0.00 | 0.25 | 0.25 | 95 | 1014.8 |
| 20260506235543 | 49 | 280 | 4.0 | 4.0 | 0.00 | 0.25 | 0.25 | 95 | 1014.8 |
| 20260506235038 | 49 | 261 | 4.0 | 4.0 | 0.00 | 0.25 | 0.25 | 95 | 1014.7 |
| 20260506234536 | 49 | 262 | 4.0 | 4.0 | 0.00 | 0.25 | 0.25 | 94 | 1014.7 |
| 20260506234028 | 49 | 264 | 4.0 | 4.0 | 0.00 | 0.25 | 0.25 | 95 | 1014.6 |
| 20260506233524 | 50 | 79 | 2.0 | 2.0 | 0.00 | 0.25 | 0.25 | 95 | 1014.5 |
| 20260506233016 | 50 | 359 | 0.0 | 3.0 | 0.00 | 0.25 | 0.25 | 95 | 1014.5 |
| 20260506232512 | 50 | 305 | 4.0 | 6.0 | 0.00 | 0.25 | 0.25 | 95 | 1014.8 |
| 20260506232007 | 50 | 261 | 2.0 | 4.0 | 0.00 | 0.25 | 0.25 | 95 | 1014.8 |
| 20260506231504 | 50 | 284 | 2.0 | 3.0 | 0.00 | 0.25 | 0.25 | 95 | 1014.5 |
| 20260506230957 | 50 | 288 | 0.0 | 3.0 | 0.00 | 0.25 | 0.25 | 95 | 1014.4 |
| 20260506230453 | 50 | 265 | 1.0 | 2.0 | 0.00 | 0.25 | 0.25 | 95 | 1014.3 |
| 20260506225949 | 51 | 277 | 2.0 | 4.0 | 0.00 | 0.25 | 0.25 | 95 | 1014.4 |
| 20260506225446 | 51 | 290 | 3.0 | 3.0 | 0.00 | 0.25 | 0.25 | 95 | 1014.1 |
| 20260506224937 | 51 | 283 | 5.0 | 7.0 | 0.00 | 0.25 | 0.25 | 95 | 1014.1 |
| 20260506224435 | 51 | 265 | 4.0 | 6.0 | 0.00 | 0.25 | 0.25 | 95 | 1014.2 |
| 20260506223931 | 51 | 263 | 0.0 | 3.0 | 0.00 | 0.25 | 0.25 | 95 | 1014.0 |
| 20260506223427 | 51 | 258 | 4.0 | 4.0 | 0.00 | 0.25 | 0.25 | 95 | 1014.1 |
| 20260506222924 | 51 | 272 | 2.0 | 2.0 | 0.00 | 0.25 | 0.25 | 95 | 1014.3 |
| 20260506222420 | 51 | 282 | 2.0 | 3.0 | 0.00 | 0.25 | 0.25 | 95 | 1014.2 |
| 20260506221918 | 51 | 312 | 1.0 | 4.0 | 0.00 | 0.25 | 0.25 | 95 | 1014.2 |
| 20260506221414 | 51 | 260 | 2.0 | 3.0 | 0.05 | 0.25 | 0.25 | 95 | 1014.1 |
| 20260506220913 | 51 | 282 | 2.0 | 2.0 | 0.05 | 0.25 | 0.25 | 95 | 1014.3 |
| 20260506220408 | 51 | 265 | 3.0 | 3.0 | 0.00 | 0.24 | 0.24 | 95 | 1014.5 |
| 20260506215904 | 52 | 232 | 1.0 | 2.0 | 0.00 | 0.24 | 0.24 | 94 | 1014.0 |
| 20260506215400 | 52 | 301 | 1.0 | 1.0 | 0.00 | 0.24 | 0.24 | 94 | 1013.9 |
| 20260506214850 | 52 | 316 | 0.0 | 0.0 | 0.00 | 0.24 | 0.24 | 94 | 1014.0 |
| 20260506214347 | 52 | 298 | 2.0 | 3.0 | 0.00 | 0.24 | 0.24 | 94 | 1014.0 |
| 20260506213846 | 52 | 266 | 1.0 | 2.0 | 0.00 | 0.24 | 0.24 | 94 | 1013.9 |
| 20260506213342 | 52 | 322 | 1.0 | 4.0 | 0.00 | 0.24 | 0.24 | 94 | 1013.6 |
| 20260506212839 | 53 | 290 | 0.0 | 2.0 | 0.00 | 0.24 | 0.24 | 93 | 1013.8 |
| 20260506212336 | 53 | 257 | 0.0 | 2.0 | 0.00 | 0.24 | 0.24 | 93 | 1013.8 |
| 20260506211831 | 53 | 283 | 1.0 | 2.0 | 0.00 | 0.24 | 0.24 | 93 | 1013.5 |
| 20260506211327 | 53 | 297 | 3.0 | 3.0 | 0.00 | 0.24 | 0.24 | 92 | 1013.3 |
| 20260506210824 | 53 | 271 | 2.0 | 3.0 | 0.00 | 0.24 | 0.24 | 92 | 1013.4 |
| 20260506210321 | 53 | 293 | 2.0 | 7.0 | 0.00 | 0.24 | 0.24 | 92 | 1013.0 |
| 20260506205818 | 53 | 290 | 0.0 | 4.0 | 0.00 | 0.24 | 0.24 | 93 | 1013.3 |
| 20260506205314 | 53 | 275 | 1.0 | 3.0 | 0.00 | 0.24 | 0.24 | 93 | 1013.2 |
| 20260506204811 | 54 | 259 | 2.0 | 2.0 | 0.00 | 0.24 | 0.24 | 93 | 1013.1 |
| 20260506204308 | 54 | 280 | 2.0 | 6.0 | 0.00 | 0.24 | 0.24 | 93 | 1013.2 |
| 20260506203806 | 54 | 269 | 2.0 | 2.0 | 0.00 | 0.24 | 0.24 | 93 | 1013.2 |
| 20260506203303 | 54 | 273 | 1.0 | 3.0 | 0.00 | 0.24 | 0.24 | 93 | 1013.0 |
| 20260506202800 | 54 | 260 | 2.0 | 4.0 | 0.00 | 0.24 | 0.24 | 93 | 1013.0 |
| 20260506202257 | 54 | 264 | 2.0 | 3.0 | 0.00 | 0.24 | 0.24 | 93 | 1013.1 |
| 20260506201753 | 54 | 286 | 4.0 | 6.0 | 0.00 | 0.24 | 0.24 | 93 | 1013.2 |
| 20260506201250 | 54 | 301 | 1.0 | 3.0 | 0.07 | 0.24 | 0.24 | 93 | 1013.2 |
| 20260506200748 | 55 | 104 | 1.0 | 2.0 | 0.07 | 0.24 | 0.24 | 93 | 1013.0 |
| 20260506200243 | 55 | 281 | 2.0 | 3.0 | 0.00 | 0.23 | 0.23 | 93 | 1012.9 |
| 20260506195740 | 55 | 243 | 3.0 | 3.0 | 0.00 | 0.23 | 0.23 | 93 | 1012.8 |
| 20260506195236 | 56 | 288 | 2.0 | 4.0 | 0.00 | 0.23 | 0.23 | 93 | 1012.9 |
| 20260506194733 | 56 | 295 | 0.0 | 3.0 | 0.00 | 0.23 | 0.23 | 92 | 1012.8 |
| 20260506194229 | 56 | 270 | 4.0 | 6.0 | 0.00 | 0.23 | 0.23 | 92 | 1012.9 |
| 20260506145357 | 57 | 268 | 13.0 | 16.0 | 0.00 | 0.23 | 0.23 | 91 | 1011.1 |
| 20260506144855 | 57 | 268 | 13.0 | 16.0 | 0.00 | 0.23 | 0.23 | 91 | 1011.1 |
| 20260506144351 | 57 | 237 | 8.0 | 13.0 | 0.00 | 0.23 | 0.23 | 92 | 1011.0 |
| 20260506143850 | 57 | 274 | 6.0 | 9.0 | 0.00 | 0.23 | 0.23 | 92 | 1010.9 |
| 20260506143346 | 57 | 254 | 5.0 | 10.0 | 0.00 | 0.23 | 0.23 | 92 | 1010.9 |
| 20260506142845 | 57 | 259 | 8.0 | 9.0 | 0.00 | 0.23 | 0.23 | 92 | 1011.1 |
| 20260506142342 | 57 | 255 | 6.0 | 9.0 | 0.00 | 0.23 | 0.23 | 92 | 1011.1 |
| 20260506141840 | 57 | 269 | 10.0 | 11.0 | 0.00 | 0.23 | 0.23 | 91 | 1011.3 |
| 20260506141338 | 57 | 294 | 9.0 | 11.0 | 0.00 | 0.23 | 0.23 | 90 | 1011.4 |
| 20260506140836 | 57 | 245 | 8.0 | 14.0 | 0.00 | 0.23 | 0.23 | 89 | 1010.9 |
| 20260506140332 | 57 | 244 | 8.0 | 11.0 | 0.00 | 0.23 | 0.23 | 90 | 1011.3 |
| 20260506135829 | 57 | 296 | 8.0 | 11.0 | 0.00 | 0.23 | 0.23 | 90 | 1010.9 |
| 20260506135326 | 57 | 264 | 6.0 | 13.0 | 0.00 | 0.23 | 0.23 | 90 | 1011.3 |
| 20260506134822 | 57 | 223 | 5.0 | 8.0 | 0.00 | 0.23 | 0.23 | 91 | 1011.4 |
| 20260506134319 | 57 | 234 | 6.0 | 13.0 | 0.00 | 0.23 | 0.23 | 91 | 1011.4 |
| 20260506133816 | 57 | 246 | 2.0 | 6.0 | 0.05 | 0.23 | 0.23 | 92 | 1011.4 |
| 20260506133313 | 57 | 231 | 3.0 | 7.0 | 0.05 | 0.23 | 0.23 | 92 | 1011.7 |
| 20260506132809 | 57 | 293 | 8.0 | 9.0 | 0.00 | 0.22 | 0.22 | 92 | 1011.9 |
| 20260506132307 | 56 | 290 | 5.0 | 10.0 | 0.07 | 0.22 | 0.22 | 92 | 1012.0 |
| 20260506131805 | 56 | 252 | 5.0 | 10.0 | 0.07 | 0.22 | 0.22 | 92 | 1011.6 |
| 20260506131300 | 56 | 252 | 3.0 | 6.0 | 0.00 | 0.21 | 0.21 | 92 | 1011.7 |
| 20260506130757 | 56 | 244 | 4.0 | 7.0 | 0.05 | 0.21 | 0.21 | 92 | 1011.7 |
| 20260506130254 | 56 | 246 | 4.0 | 7.0 | 0.00 | 0.20 | 0.20 | 92 | 1011.9 |
| 20260506125752 | 56 | 250 | 4.0 | 4.0 | 0.00 | 0.20 | 0.20 | 92 | 1011.6 |
| 20260506125250 | 56 | 232 | 3.0 | 6.0 | 0.00 | 0.20 | 0.20 | 92 | 1011.6 |
| 20260506124748 | 55 | 278 | 5.0 | 6.0 | 0.00 | 0.20 | 0.20 | 92 | 1011.5 |
| 20260506124245 | 55 | 260 | 5.0 | 6.0 | 0.07 | 0.20 | 0.20 | 92 | 1011.8 |
| 20260506123743 | 55 | 287 | 4.0 | 6.0 | 0.07 | 0.20 | 0.20 | 91 | 1011.5 |
| 20260506123242 | 55 | 225 | 4.0 | 4.0 | 0.00 | 0.19 | 0.19 | 91 | 1011.6 |
| 20260506122738 | 55 | 240 | 5.0 | 6.0 | 0.00 | 0.19 | 0.19 | 91 | 1011.8 |
| 20260506122235 | 55 | 257 | 2.0 | 6.0 | 0.05 | 0.19 | 0.19 | 91 | 1011.6 |
| 20260506121733 | 55 | 256 | 3.0 | 4.0 | 0.05 | 0.19 | 0.19 | 91 | 1011.8 |
| 20260506121230 | 55 | 248 | 3.0 | 4.0 | 0.00 | 0.18 | 0.18 | 91 | 1011.8 |
| 20260506120727 | 55 | 245 | 3.0 | 3.0 | 0.07 | 0.18 | 0.18 | 91 | 1011.9 |
| 20260506120225 | 55 | 251 | 2.0 | 3.0 | 0.07 | 0.18 | 0.18 | 91 | 1011.8 |
| 20260506115722 | 55 | 235 | 3.0 | 4.0 | 0.00 | 0.17 | 0.17 | 91 | 1011.5 |
| 20260506115220 | 54 | 242 | 2.0 | 4.0 | 0.00 | 0.17 | 0.17 | 91 | 1011.4 |
| 20260506114718 | 54 | 261 | 1.0 | 2.0 | 0.05 | 0.17 | 0.17 | 91 | 1011.3 |
| 20260506114215 | 54 | 247 | 3.0 | 3.0 | 0.12 | 0.17 | 0.17 | 91 | 1011.8 |
| 20260506113713 | 54 | 248 | 3.0 | 3.0 | 0.12 | 0.16 | 0.16 | 91 | 1011.5 |
| 20260506113211 | 54 | 234 | 3.0 | 7.0 | 0.12 | 0.15 | 0.15 | 90 | 1011.7 |
| 20260506112707 | 54 | 239 | 2.0 | 7.0 | 0.14 | 0.14 | 0.14 | 91 | 1011.6 |
| 20260506112205 | 53 | 243 | 2.0 | 2.0 | 0.12 | 0.13 | 0.13 | 92 | 1011.6 |
| 20260506111702 | 53 | 247 | 1.0 | 2.0 | 0.05 | 0.12 | 0.12 | 92 | 1011.8 |
| 20260506111200 | 53 | 245 | 0.0 | 0.0 | 0.00 | 0.11 | 0.11 | 92 | 1011.8 |
| 20260506110656 | 53 | 246 | 0.0 | 2.0 | 0.07 | 0.11 | 0.11 | 92 | 1011.8 |
| 20260506110154 | 53 | 243 | 2.0 | 2.0 | 0.12 | 0.11 | 0.11 | 91 | 1011.9 |
| 20260506105651 | 53 | 247 | 2.0 | 3.0 | 0.12 | 0.10 | 0.10 | 91 | 1011.8 |
| 20260506105148 | 53 | 244 | 3.0 | 4.0 | 0.12 | 0.09 | 0.09 | 91 | 1011.8 |
| 20260506104646 | 53 | 250 | 4.0 | 4.0 | 0.17 | 0.08 | 0.08 | 90 | 1011.9 |
| 20260506104143 | 53 | 276 | 6.0 | 7.0 | 0.19 | 0.07 | 0.07 | 90 | 1011.9 |
| 20260506103640 | 53 | 244 | 4.0 | 4.0 | 0.12 | 0.05 | 0.05 | 90 | 1011.9 |
| 20260506103137 | 53 | 255 | 2.0 | 4.0 | 0.12 | 0.04 | 0.04 | 88 | 1011.9 |
| 20260506102635 | 54 | 249 | 2.0 | 6.0 | 0.12 | 0.03 | 0.03 | 87 | 1012.0 |
| 20260506102132 | 54 | 237 | 3.0 | 4.0 | 0.12 | 0.02 | 0.02 | 87 | 1012.1 |
| 20260506101629 | 55 | 244 | 3.0 | 4.0 | 0.07 | 0.01 | 0.01 | 85 | 1012.2 |
| 20260506101125 | 55 | 257 | 4.0 | 7.0 | 0.00 | 0.00 | 0.00 | 83 | 1012.2 |
| 20260506100624 | 55 | 261 | 3.0 | 4.0 | 0.00 | 0.00 | 0.00 | 81 | 1011.9 |
| 20260506100122 | 55 | 246 | 2.0 | 3.0 | 0.00 | 0.00 | 0.00 | 81 | 1012.2 |
| 20260506095620 | 56 | 250 | 3.0 | 4.0 | 0.00 | 0.00 | 0.00 | 80 | 1012.1 |
| 20260506095117 | 55 | 247 | 4.0 | 6.0 | 0.00 | 0.00 | 0.00 | 78 | 1012.1 |
| 20260506094614 | 56 | 273 | 2.0 | 3.0 | 0.00 | 0.00 | 0.00 | 78 | 1012.0 |
| 20260506094112 | 56 | 252 | 1.0 | 2.0 | 0.00 | 0.00 | 0.00 | 78 | 1011.7 |
| 20260506093610 | 56 | 249 | 2.0 | 3.0 | 0.00 | 0.00 | 0.00 | 76 | 1012.0 |
| 20260506093107 | 57 | 262 | 2.0 | 4.0 | 0.00 | 0.00 | 0.00 | 74 | 1012.0 |
| 20260506092605 | 57 | 267 | 2.0 | 4.0 | 0.00 | 0.00 | 0.00 | 71 | 1011.8 |
| 20260506092101 | 58 | 261 | 2.0 | 3.0 | 0.00 | 0.00 | 0.00 | 70 | 1011.8 |
| 20260506091600 | 58 | 254 | 3.0 | 6.0 | 0.00 | 0.00 | 0.00 | 69 | 1011.9 |
| 20260506091057 | 58 | 272 | 6.0 | 7.0 | 0.00 | 0.00 | 0.00 | 67 | 1011.8 |
| 20260506090554 | 59 | 237 | 7.0 | 9.0 | 0.00 | 0.00 | 0.00 | 64 | 1011.8 |
| 20260506090050 | 60 | 268 | 5.0 | 7.0 | 0.00 | 0.00 | 0.00 | 61 | 1012.2 |
| 20260506085548 | 60 | 267 | 6.0 | 8.0 | 0.00 | 0.00 | 0.00 | 58 | 1012.1 |
| 20260506085044 | 60 | 258 | 7.0 | 7.0 | 0.00 | 0.00 | 0.00 | 58 | 1012.1 |
| 20260506084541 | 60 | 243 | 4.0 | 7.0 | 0.00 | 0.00 | 0.00 | 58 | 1012.2 |
| 20260506084037 | 59 | 242 | 5.0 | 6.0 | 0.00 | 0.00 | 0.00 | 58 | 1012.0 |
| 20260506083534 | 60 | 242 | 4.0 | 6.0 | 0.00 | 0.00 | 0.00 | 59 | 1011.9 |
| 20260506083032 | 59 | 236 | 4.0 | 7.0 | 0.00 | 0.00 | 0.00 | 59 | 1012.0 |
| 20260506082528 | 58 | 250 | 4.0 | 4.0 | 0.00 | 0.00 | 0.00 | 60 | 1011.9 |
| 20260506082024 | 58 | 234 | 2.0 | 3.0 | 0.00 | 0.00 | 0.00 | 60 | 1012.0 |
| 20260506081522 | 57 | 224 | 1.0 | 3.0 | 0.00 | 0.00 | 0.00 | 63 | 1012.1 |
| 20260506081020 | 57 | 235 | 2.0 | 3.0 | 0.00 | 0.00 | 0.00 | 61 | 1012.0 |
| 20260506080517 | 57 | 241 | 3.0 | 3.0 | 0.00 | 0.00 | 0.00 | 62 | 1012.1 |